Location: Devargunta
(16.7631°N, 80.9077°E)
Time: 12:36:31
(UTC+00:00)

Gbstr 26 Del rocket - Pass Details

Date: 19 January 2021
Orbit: 492 x 1264 km, 51.8° (Epoch: 07 March)

Event Time Altitude Azimuth Distance (km) Brightness Sun altitude
Exits shadow 23:30:32 29° 235° (SW) 1,790 5.0 -23.3°
Maximum altitude 23:34:14 67° 309° (NW) 1,184 4.1 -22.4°
Drops below altitude 10° 23:41:59 10° 31° (NNE) 3,166 6.8 -20.6°
Sets 23:45:00 0° 34° (NE) 4,180 7.5 -19.9°
